Location: Lanoux
(43.1180°N, 1.4255°E)
Time: 15:19:16
(UTC+00:00)

DX 1 - Visible Passes

Search period start: 19 April 2026 00:00
Search period end: 29 April 2026 00:00
Orbit: 593 x 605 km, 98.4° (Epoch: 19 April)

Date Brightness Start Highest point End Pass type
(mag) Time Alt. Az. Time Alt. Az. Time Alt. Az.
19 Apr ? 01:59:34 10° NE 02:02:30 18° E 02:03:13 18° ESE visible
19 Apr ? 03:34:22 10° N 03:38:16 39° WNW 03:39:57 27° WSW visible
20 Apr ? 02:09:49 10° NE 02:13:13 23° E 02:14:05 22° ESE visible
20 Apr ? 03:45:09 10° N 03:48:50 31° WNW 03:50:49 21° WSW visible
21 Apr ? 02:20:11 10° NE 02:23:53 30° E 02:24:58 26° SE visible
21 Apr ? 03:55:59 10° NNW 03:59:24 24° WNW 04:01:41 16° WSW visible
22 Apr ? 02:30:37 10° NNE 02:34:34 38° E 02:35:49 31° SE visible
22 Apr ? 04:06:54 10° NNW 04:09:55 20° WNW 04:12:33 12° WSW visible
23 Apr ? 02:41:08 10° NNE 02:45:13 50° E 02:46:41 34° SSE visible
23 Apr ? 04:17:56 10° NNW 04:20:26 16° WNW 04:22:57 10° W visible
24 Apr ? 02:51:40 10° NNE 02:55:52 67° ESE 02:57:32 34° S visible
25 Apr ? 03:02:15 10° NNE 03:06:29 87° ESE 03:08:23 32° SSW visible
26 Apr ? 01:40:48 10° E 01:40:59 10° E 01:41:11 10° E visible
26 Apr ? 03:12:53 10° N 03:17:04 72° WNW 03:19:14 28° SSW visible
27 Apr ? 01:49:39 10° ENE 01:51:43 13° E 01:53:22 11° ESE visible
27 Apr ? 03:23:33 10° N 03:27:40 55° WNW 03:30:05 23° SW visible
28 Apr ? 01:59:38 10° NE 02:02:26 17° E 02:04:13 14° ESE visible
28 Apr ? 03:34:16 10° N 03:38:14 42° WNW 03:40:56 18° SW visible
